Location: Olsztyn
(53.7767°N, 20.4765°E)
Time: 20:40:59
(UTC+02:00)

Envisat - Pass Details

Date: 01 March 2024
Orbit: 762 x 764 km, 98.3° (Epoch: 20 April)

Event Time Altitude Azimuth Distance (km) Brightness Sun altitude
Rises 01:20:03 0° 30° (NNE) 3,244 7.1 -40.3°
Reaches altitude 10° 01:24:51 10° 71° (ENE) 2,309 5.9 -39.9°
Enters shadow 01:25:33 10° 79° (E) 2,282 5.8 -39.9°
